This is the latest recevied weather packets stored in our database for station/object JO1YDG-13. If no packets are shown the sender has not sent any weather packets the latest 10 day(s).
| Time | Temp. | Humidity | Pressure | Rain* | Wind** | Luminosity | Snow |
|---|---|---|---|---|---|---|---|
| 1777662456 | 10.56° C | 86% | 971.6 hPa | 0 mm | - | - | - |
| 1777661856 | 8.89° C | 95% | 971 hPa | 0 mm | - | - | - |
| 1777660655 | 9.44° C | 93% | 971.2 hPa | 0 mm | - | - | - |
| 1777660355 | 8.89° C | 94% | 971.2 hPa | 0 mm | - | - | - |
| 1777660057 | 8.89° C | 95% | 971.2 hPa | 0 mm | - | - | - |
| 1777659756 | 9.44° C | 95% | 970.4 hPa | 0 mm | - | - | - |
| 1777659456 | 8.89° C | 98% | 970.4 hPa | 0 mm | - | - | - |
| 1777659156 | 8.89° C | 98% | 970.3 hPa | 0 mm | - | - | - |
| 1777658856 | 8.89° C | 98% | 970.3 hPa | 0 mm | - | - | - |
| 1777658256 | 8.89° C | 98% | 969.9 hPa | 0 mm | - | - | - |
| 1777657056 | 8.89° C | 97% | 969.2 hPa | 0 mm | - | - | - |
| 1777656756 | 8.89° C | 97% | 969.2 hPa | 0 mm | - | - | - |
| 1777656455 | 9.44° C | 97% | 969.2 hPa | 0 mm | - | - | - |
| 1777656155 | 9.44° C | 97% | 969.1 hPa | 0 mm | - | - | - |
| 1777655555 | 8.89° C | 97% | 969.4 hPa | 0 mm | - | - | - |
| 1777654956 | 9.44° C | 98% | 969.3 hPa | 0 mm | - | - | - |
| 1777653455 | 9.44° C | 98% | 969.2 hPa | 0 mm | - | - | - |
| 1777653156 | 8.89° C | 98% | 969.2 hPa | 0 mm | - | - | - |
| 1777652856 | 8.89° C | 98% | 969.2 hPa | 0 mm | - | - | - |
| 1777652556 | 8.89° C | 98% | 968.7 hPa | 0 mm | - | - | - |
| 1777652256 | 8.89° C | 98% | 968.7 hPa | 0 mm | - | - | - |
| 1777651955 | 8.89° C | 98% | 968.9 hPa | 0 mm | - | - | - |
| 1777651655 | 8.89° C | 98% | 968.9 hPa | 0 mm | - | - | - |
| 1777651355 | 8.89° C | 98% | 968.8 hPa | 0 mm | - | - | - |
| 1777651055 | 8.89° C | 97% | 968.8 hPa | 0 mm | - | - | - |
* Rain latest hour (hover to see other rain measurements)
** Current wind speed in m/s (hover to see current wind gust speed)